Content
SEND FEEDBACK

Daily
Averages
Monthly
Summary
Canada

OSKELANEO, QUEBEC


Home > North America > Canada > Quebec
Elevation: 1362 feet     Latitude: 48 01N     Longitude: 075 12W

WEATHER
 
SELECT A DAY
Number of Records: 160,959;   Date Range: 1/1/95 - 8/31/14
 
SHARE

PRINT THIS DATA

[ ← Previous Day ]
WEATHER ALMANAC - JANUARY 3, 2013
[ Next Day → ]
[ °C ]   °F
Weather ElementAverageHighLow
Temperature-9.9 °F1.6 °F (11:00 pm)-25 °F (4:00 am)
Dewpoint-14.5 °F-2.2 °F (11:00 pm)-30 °F (4:00 am)
Humidity77.4 %86 % (7:00 pm)65 % (4:00 am)
Barometer30.05 in30.26 in (3:00 am)29.77 in (11:00 pm)
Wind Speed2.1 mph4.6 mph (3:00 pm)
Weather ElementAverage
Wind DirectionSSE (151.7 °)

Weather ElementTotal
Precipitation0.20 in
Heating Degree Days76.7 (Base 65)
Averaged from 31 records on January 3, 2013
WEATHER CONDITIONS BREAKOUT
WIND DIRECTION BREAKOUT
WEATHER BY HOUR - JANUARY 3, 2013
[ °C ]   °F
Local TimeTemperatureDewpointHumidityBarometerVisibilityWind DirectionWind SpeedGust SpeedPrecipitationEventsConditions
1:00 AM-20.0 °F-25.0 °F67 %30.25 inWNW (300°)3.5 mph
1:00 AM-20.0 °F-24.7 °F79 %30.25 inWNW (300°)3.5 mph
2:00 AM-20.9 °F-25.6 °F79 %30.25 inWNW (290°)3.5 mph
3:00 AM-24.3 °F-29.7 °F76 %30.26 inCalm
4:00 AM-25.0 °F-30.0 °F65 %30.24 inWNW (290°)1.2 mph
4:00 AM-24.7 °F-29.9 °F76 %30.24 inWNW (290°)1.2 mph
5:00 AM-24.2 °F-29.6 °F76 %30.22 inCalm
6:00 AM-23.4 °F-28.7 °F77 %30.21 inCalm
7:00 AM-23.0 °F-28.0 °F67 %30.19 inCalm
7:00 AM-22.5 °F-27.6 °F77 %30.19 inCalm
8:00 AM-20.2 °F-25.1 °F78 %30.19 inCalm0.01 in
9:00 AM-17.7 °F-22.4 °F79 %30.16 inCalm0.03 in
10:00 AM-13.0 °F-18.0 °F68 %30.13 inSE (130°)1.2 mph
10:00 AM-13.2 °F-17.9 °F80 %30.13 inSE (130°)1.2 mph0.07 in
11:00 AM-9.0 °F-13.7 °F80 %30.10 inSE (130°)1.2 mph0.04 in
12:00 PM-5.4 °F-10.5 °F79 %30.06 inSE (130°)2.3 mph0.04 in
1:00 PM-2.0 °F-8.0 °F65 %30.02 inSSE (160°)2.3 mph
1:00 PM-2.0 °F-7.8 °F76 %30.02 inSSE (160°)2.3 mph0.01 in
2:00 PM-0.6 °F-6.2 °F77 %29.98 inSSE (160°)3.5 mph
3:00 PM0.5 °F-4.9 °F78 %29.96 inSSE (160°)4.6 mph
4:00 PM1.0 °F-3.0 °F72 %29.94 inSSE (160°)3.5 mph
4:00 PM0.9 °F-3.5 °F82 %29.94 inSSE (160°)3.5 mph
5:00 PM0.3 °F-3.5 °F84 %29.93 inSSE (150°)3.5 mph
6:00 PM-0.4 °F-4.2 °F84 %29.89 inSE (130°)2.3 mph
7:00 PM-1.0 °F-4.0 °F78 %29.88 inSSE (150°)2.3 mph
7:00 PM-1.1 °F-4.4 °F86 %29.88 inSSE (150°)2.3 mph
8:00 PM0.3 °F-3.1 °F85 %29.86 inSouth (170°)2.3 mph
9:00 PM1.2 °F-2.4 °F85 %29.82 inSSW (210°)3.5 mph
10:00 PM1.0 °F-3.0 °F77 %29.80 inSSW (210°)3.5 mph
10:00 PM1.2 °F-2.6 °F84 %29.80 inSSW (210°)3.5 mph
11:00 PM1.6 °F-2.2 °F84 %29.77 inSW (220°)2.3 mph
Hourly data recorded from CWPK, located miles away from Oskelaneo, Quebec







STORIES FROM OUR PARTNERS